STARLINK-33672, 63326

Orbit data source: Space-Track

STARLINK-33672, 63326 is a payload satellite owned by SpaceX/Seattle (US) in LEO that was launched on Tue, 18 Mar 2025 UTC via an FALCON 9 launch vehicle from the Air Force Eastern Test Range (AFETR). Payload-class satellites include a variety of spacecraft equipped with specific instruments for various scientific and technological missions. These include communications satellites like Starlink; space stations such as the ISS; scientific satellites like the Hubble; Earth observation satellites from companies like Planet Labs, Umbra, and HawkEye 360; GPS; miniature CubeSats for education and research; and military/defense satellites.

Loading next visibility...
Identifier
63326, 2025-057V
Orbit
LEO
Country
Flag of USUS
Related business
Manufacturer
SpaceX/Seattle
Mission
Operational Commercial Communications
Bus & Motor
STARLINK V2MO, Unknown motor
Mass
575 kg wet, ~530 kg dry
Launch date (UTC)
2025-03-18 (7 months ago)
Launch vehicle
FALCON 9
Launch site
Air Force Eastern Test Range (AFETR)
Object type
Payload
Rocket body
Debris
Shape & HBR
Box + 2 Pan, 17.7 m
Radar Cross Section
36.964 m², Large (>1 m²)

Expand to show TLE details & history
Last TLE update: 17 hours ago

TLE from 17 hours ago
0 STARLINK-33672
1 63326U 25057V   25294.89674313  .00032969  00000-0  12017-2 0  9994
2 63326  43.0021  94.4238 0001701 276.4238  83.6420 15.27594736 34552
Epoch: 2025-10-21T21:31Z
TLE epoch observation values (Epoch: 2025-10-21T21:31:18.606Z)
Latitude
-0.00001°
Longitude
101.01814°
Altitude
482.652 km
Speed
7.626 km/s
True Right ascension
06h 17m 41s
True Declination
0° 00' 00"
Sunlit
Object was in partial shadow at epoch
Visualization orbit readout
Latitude
Unknown
Longitude
Unknown
Altitude
Unknown
Speed
Unknown
Apparent Right ascension
Unknown
Apparent Declination
Unknown
Sunlit
N/A
Visualization observer readout
Local Sidereal Time
09:26:52
Azimuth
Unknown
Elevation
Unknown
Doppler factor
Unknown
Orbital elements
Apogee altitude
486.117 km
Perigee altitude
483.782 km
Semi-major axis
6,863.087 km
Eccentricity
0.00017
Inclination
43.0021°
RAAN
94.4238°
Arg. of periapsis
276.4238°
True anomaly
83.66137°
Mean anomaly
83.642°
Eccentric anomaly
83.65169°
Mean motion
3.81737 °/min
Orbital period
94.31 mins
BSTAR
0.0012017
Loading maneuver chart data...
Computing Atmospheric mass density...
Loading historical data...
Loading historical data...
Loading historical data...
Loading historical data...
Loading historical data...
Loading historical data...
Loading historical data...

Documentation

Showing up to 5 results
|